Patuxent River, MD

12:13 PM EDT on May 24, 2017 (GMT -0400)
Patuxent River Naval Air Station

Weather History for KNHK - December, 2013

Change the Weather History Date:

Saturday, December 7, 2013

  Actual Average Record
Temperature  
Mean Temperature 39 °F -  
Max Temperature 44 °F 50 °F 80 °F (1998)
Min Temperature 34 °F 34 °F 13 °F (2002)
Degree Days  
Heating Degree Days 26    
Moisture  
Dew Point 32 °F    
Average Humidity 76    
Maximum Humidity 89    
Minimum Humidity 59    
Precipitation  
Precipitation 0.25 in - - ()
Sea Level Pressure  
Sea Level Pressure 30.32 in    
Wind  
Wind Speed 13 mph (NNW)    
Max Wind Speed 17 mph    
Max Gust Speed 37 mph    
Visibility 10 miles    
Events Rain    
Averages and records for this station are not official NWS values.
T = Trace of Precipitation, MM = Missing Value Source: NWS Daily Summary

Daily Weather History Graph

Daily Weather History Graph

Search for Another Location

Airport or City:

Trip Planner

Search our weather history database for the weather conditions in past years. The results will help you decide how hot, cold, wet, or windy it might be!

Date:

Astronomy

Dec. 07, 2013 Rise Set
Actual Time 7:09 AM EST 4:45 PM EST
Civil Twilight 6:39 AM EST 5:14 PM EST
Nautical Twilight 6:06 AM EST 5:47 PM EST
Astronomical Twilight 5:34 AM EST 6:19 PM EST
Moon 10:55 AM EST (12/7) 10:20 PM EST (12/7)
Length of Visible Light 10h 34m
Length of Day
9h 35m
Waxing Crescent, 29% of the Moon is Illuminated
Dec 7
Waxing Crescent
Dec 9
First Quarter
Dec 17
Full
Dec 25
Last Quarter
Jan 1
New

Hourly Weather History & Observations

Time (EST) Temp. Windchill Dew Point Humidity Pressure Visibility Wind Dir Wind Speed Gust Speed Precip Events Conditions
12:52 AM 41.0 °F 34.3 °F 37.9 °F 89% 30.12 in 10.0 mi North 11.5 mph - 0.01 in Rain Light Rain
1:52 AM 39.9 °F 32.9 °F 37.0 °F 89% 30.14 in 10.0 mi North 11.5 mph - 0.08 in Rain Light Rain
2:21 AM 39.9 °F 31.8 °F 36.0 °F 86% 30.13 in 10.0 mi North 15.0 mph 24.2 mph 0.05 in Rain Rain
2:52 AM 39.9 °F 31.8 °F 36.0 °F 86% 30.17 in 10.0 mi North 15.0 mph - 0.09 in Rain Rain
2:55 AM 39.9 °F 31.4 °F 37.0 °F 89% 30.16 in 10.0 mi North 16.1 mph - 0.00 in Rain Rain
3:38 AM 39.0 °F 29.9 °F 36.0 °F 89% 30.18 in 10.0 mi NNW 17.3 mph 36.8 mph 0.05 in Rain Heavy Rain
3:52 AM 39.0 °F 31.0 °F 36.0 °F 89% 30.18 in 10.0 mi North 13.8 mph 25.3 mph 0.07 in Rain Rain
4:52 AM 39.0 °F 30.6 °F 36.0 °F 89% 30.22 in 10.0 mi North 15.0 mph 24.2 mph 0.00 in Rain Light Rain
5:14 AM 39.0 °F 31.4 °F 36.0 °F 89% 30.22 in 10.0 mi North 12.7 mph - 0.00 in Rain Light Rain
5:21 AM 39.0 °F 30.6 °F 36.0 °F 89% 30.22 in 10.0 mi North 15.0 mph - 0.00 in Rain Light Rain
5:52 AM 39.9 °F 32.1 °F 36.0 °F 86% 30.25 in 7.0 mi North 13.8 mph 19.6 mph 0.00 in Rain Light Rain
6:11 AM 39.0 °F 30.3 °F 36.0 °F 89% 30.25 in 7.0 mi North 16.1 mph - 0.00 in   Overcast
6:52 AM 39.9 °F 31.8 °F 36.0 °F 86% 30.27 in 7.0 mi North 15.0 mph - 0.00 in   Overcast
7:52 AM 39.0 °F 32.3 °F 35.1 °F 86% 30.30 in 10.0 mi NNW 10.4 mph - N/A   Overcast
8:52 AM 39.0 °F 31.4 °F 35.1 °F 86% 30.35 in 10.0 mi NNW 12.7 mph - N/A   Overcast
9:52 AM 39.0 °F 31.4 °F 34.0 °F 82% 30.37 in 10.0 mi NNW 12.7 mph - N/A   Overcast
10:52 AM 39.9 °F 32.1 °F 32.0 °F 73% 30.38 in 10.0 mi North 13.8 mph - N/A   Mostly Cloudy
11:13 AM 42.1 °F 34.9 °F 32.0 °F 67% 30.37 in 10.0 mi North 13.8 mph - N/A   Mostly Cloudy
11:52 AM 41.0 °F 32.5 °F 28.9 °F 62% 30.38 in 10.0 mi North 17.3 mph - N/A   Mostly Cloudy
12:52 PM 44.1 °F 37.7 °F 32.0 °F 63% 30.37 in 10.0 mi NNW 12.7 mph - N/A   Mostly Cloudy
1:52 PM 43.0 °F 36.4 °F 30.0 °F 60% 30.36 in 10.0 mi North 12.7 mph - N/A   Mostly Cloudy
2:52 PM 43.0 °F 36.4 °F 30.0 °F 60% 30.37 in 10.0 mi North 12.7 mph - N/A   Mostly Cloudy
3:52 PM 42.1 °F 34.5 °F 28.9 °F 60% 30.39 in 10.0 mi North 15.0 mph - N/A   Mostly Cloudy
4:52 PM 39.9 °F 33.4 °F 28.0 °F 63% 30.42 in 10.0 mi North 10.4 mph - N/A   Mostly Cloudy
5:52 PM 39.9 °F 34.5 °F 28.0 °F 63% 30.45 in 10.0 mi NNW 8.1 mph - N/A   Mostly Cloudy
6:52 PM 39.0 °F 32.3 °F 26.1 °F 60% 30.47 in 10.0 mi NNW 10.4 mph - N/A   Clear
7:52 PM 37.9 °F 30.5 °F 26.1 °F 62% 30.49 in 10.0 mi NNW 11.5 mph - N/A   Clear
8:52 PM 37.0 °F 28.9 °F 24.1 °F 59% 30.50 in 10.0 mi NNW 12.7 mph - N/A   Clear
9:52 PM 36.0 °F 27.5 °F 24.1 °F 62% 30.53 in 10.0 mi NNW 12.7 mph - N/A   Clear
10:52 PM 34.0 °F 26.0 °F 23.0 °F 64% 30.52 in 10.0 mi NNW 10.4 mph - N/A   Clear
11:52 PM 34.0 °F 26.0 °F 23.0 °F 64% 30.53 in 10.0 mi NNW 10.4 mph - N/A   Clear